This is the latest recevied weather packets stored in our database for station/object SV2BZQ-2. If no packets are shown the sender has not sent any weather packets the latest 1 day(s).
| Time | Temp. | Humidity | Pressure | Rain* | Wind** | Luminosity | Snow |
|---|---|---|---|---|---|---|---|
| 1777985958 | 28.89° C | 33% | 1011.7 hPa | 0 mm | 2.24 m/s, 305° | 722 W/m² | - |
| 1777985866 | 29.44° C | 33% | 1011.7 hPa | 0 mm | 2.24 m/s, 14° | 722 W/m² | - |
| 1777985749 | 29.44° C | 33% | 1011.7 hPa | 0 mm | 2.24 m/s, 316° | 728 W/m² | - |
| 1777985615 | 29.44° C | 34% | 1011.7 hPa | 0 mm | 2.24 m/s, 333° | 737 W/m² | - |
| 1777985406 | 29.44° C | 33% | 1011.8 hPa | 0 mm | 1.79 m/s, 291° | 738 W/m² | - |
| 1777985300 | 29.44° C | 33% | 1011.8 hPa | 0 mm | 1.79 m/s, 264° | 745 W/m² | - |
| 1777985063 | 29.44° C | 33% | 1011.8 hPa | 0 mm | 1.34 m/s, 304° | 747 W/m² | - |
| 1777984977 | 29.44° C | 34% | 1011.8 hPa | 0 mm | 0.89 m/s, 257° | 751 W/m² | - |
| 1777984868 | 28.89° C | 35% | 1011.8 hPa | 0 mm | 1.34 m/s, 275° | 752 W/m² | - |
| 1777984609 | 28.89° C | 34% | 1011.8 hPa | 0 mm | 1.34 m/s, 309° | 754 W/m² | - |
| 1777984513 | 28.89° C | 33% | 1011.9 hPa | 0 mm | 1.79 m/s, 283° | 761 W/m² | - |
| 1777984415 | 28.89° C | 33% | 1011.9 hPa | 0 mm | 1.79 m/s, 14° | 763 W/m² | - |
| 1777984322 | 28.89° C | 34% | 1012 hPa | 0 mm | 1.79 m/s, 349° | 766 W/m² | - |
| 1777984233 | 28.89° C | 33% | 1012 hPa | 0 mm | 2.24 m/s, 350° | 773 W/m² | - |
| 1777984098 | 28.89° C | 34% | 1012 hPa | 0 mm | 1.79 m/s, 330° | 772 W/m² | - |
| 1777983999 | 28.89° C | 35% | 1012.1 hPa | 0 mm | 1.79 m/s, 304° | 773 W/m² | - |
| 1777983770 | 28.89° C | 35% | 1012.2 hPa | 0 mm | 1.79 m/s, 5° | 782 W/m² | - |
| 1777983666 | 28.89° C | 35% | 1012.2 hPa | 0 mm | 1.79 m/s, 286° | 791 W/m² | - |
| 1777983540 | 28.89° C | 35% | 1012.2 hPa | 0 mm | 1.79 m/s, 277° | 793 W/m² | - |
| 1777983341 | 28.89° C | 35% | 1012.2 hPa | 0 mm | 2.24 m/s, 327° | 802 W/m² | - |
| 1777983233 | 28.89° C | 35% | 1012.2 hPa | 0 mm | 1.79 m/s, 331° | 807 W/m² | - |
| 1777983148 | 28.89° C | 35% | 1012.2 hPa | 0 mm | 2.24 m/s, 295° | 812 W/m² | - |
| 1777983022 | 28.89° C | 35% | 1012.2 hPa | 0 mm | 2.24 m/s, 302° | 809 W/m² | - |
| 1777982899 | 28.33° C | 36% | 1012.3 hPa | 0 mm | 2.24 m/s, 298° | 816 W/m² | - |
| 1777982734 | 28.33° C | 36% | 1012.3 hPa | 0 mm | 2.24 m/s, 246° | 816 W/m² | - |
* Rain latest hour (hover to see other rain measurements)
** Current wind speed in m/s (hover to see current wind gust speed)